• In Hungary
  • List of Countries
  • For 7 days
  • Water Temperature
  • Satellite Maps
  • Weather Map
  • News
  • Weather Widgets
  • user-avatar
    Login

    Hourly Weather Milsko

    Today, 22 September, Saturday

    Time Temperature Precipitation Wind Pressure Humidity
    00:00 +13°C° 0 mm 5 mps 753 mmHg 75%
    01:00 +13°C° 0 mm 4 mps 754 mmHg 73%
    02:00 +13°C° 0 mm 4 mps 754 mmHg 73%
    03:00 +12°C° 0 mm 5 mps 754 mmHg 72%
    04:00 +12°C° 0 mm 5 mps 755 mmHg 71%
    05:00 +12°C° 0 mm 5 mps 755 mmHg 70%
    06:00 +11°C° 0 mm 6 mps 755 mmHg 68%
    07:00 +11°C° 0 mm 6 mps 756 mmHg 66%
    08:00 +13°C° 0 mm 6 mps 756 mmHg 62%
    09:00 +14°C° 0 mm 6 mps 756 mmHg 59%
    10:00 +15°C° 0 mm 6 mps 756 mmHg 55%
    11:00 +16°C° 0 mm 6 mps 756 mmHg 51%
    12:00 +17°C° 0 mm 6 mps 756 mmHg 47%
    13:00 +19°C° 0 mm 6 mps 756 mmHg 44%
    14:00 +17°C° 0 mm 6 mps 756 mmHg 44%
    15:00 +17°C° 0 mm 5 mps 756 mmHg 45%
    16:00 +17°C° 0 mm 5 mps 756 mmHg 46%
    17:00 +17°C° 0 mm 4 mps 756 mmHg 48%
    18:00 +15°C° 0 mm 4 mps 756 mmHg 50%
    19:00 +16°C° 0 mm 3 mps 756 mmHg 52%
    20:00 +14°C° 0 mm 3 mps 756 mmHg 54%
    21:00 +14°C° 0 mm 3 mps 756 mmHg 56%
    22:00 +13°C° 0 mm 3 mps 756 mmHg 58%
    23:00 +13°C° 0 mm 3 mps 756 mmHg 61%

    Tomorrow, 23 September, Sunday

    Time Temperature Precipitation Wind Pressure Humidity
    00:00 +13°C° 0 mm 3 mps 756 mmHg 64%
    01:00 +12°C° 0 mm 3 mps 756 mmHg 67%
    02:00 +12°C° 0.1 mm 3 mps 756 mmHg 72%
    03:00 +12°C° 0.1 mm 3 mps 755 mmHg 77%
    04:00 +11°C° 0.1 mm 3 mps 755 mmHg 82%
    05:00 +11°C° 0 mm 3 mps 755 mmHg 83%
    06:00 +11°C° 0 mm 3 mps 755 mmHg 84%
    07:00 +11°C° 0 mm 3 mps 755 mmHg 84%
    08:00 +12°C° 0.1 mm 3 mps 755 mmHg 80%
    09:00 +13°C° 0.1 mm 3 mps 755 mmHg 76%
    10:00 +14°C° 0.1 mm 3 mps 755 mmHg 71%
    11:00 +14°C° 0.1 mm 3 mps 754 mmHg 71%
    12:00 +14°C° 0.1 mm 3 mps 754 mmHg 70%
    13:00 +15°C° 0.1 mm 2 mps 753 mmHg 70%
    14:00 +15°C° 0.2 mm 2 mps 752 mmHg 72%
    15:00 +15°C° 0.2 mm 2 mps 752 mmHg 74%
    16:00 +14°C° 0.2 mm 1 mps 751 mmHg 77%
    17:00 +14°C° 2 mm 2 mps 750 mmHg 82%
    18:00 +12°C° 2 mm 3 mps 749 mmHg 86%
    19:00 +11°C° 2 mm 4 mps 747 mmHg 91%
    20:00 +11°C° 3.9 mm 4 mps 746 mmHg 91%
    21:00 +10°C° 3.9 mm 5 mps 745 mmHg 91%
    22:00 +9°C° 3.9 mm 6 mps 744 mmHg 91%
    23:00 +9°C° 1.4 mm 6 mps 745 mmHg 90%

    Day after tomorrow, 24 September, Monday

    Time Temperature Precipitation Wind Pressure Humidity
    00:00 +9°C° 1.4 mm 7 mps 745 mmHg 88%
    01:00 +9°C° 1.4 mm 8 mps 746 mmHg 87%
    02:00 +9°C° 1.1 mm 7 mps 747 mmHg 86%
    03:00 +9°C° 1.1 mm 7 mps 749 mmHg 85%
    04:00 +9°C° 1.1 mm 7 mps 751 mmHg 85%
    05:00 +8°C° 0 mm 7 mps 752 mmHg 82%
    06:00 +8°C° 0 mm 7 mps 754 mmHg 80%
    07:00 +8°C° 0 mm 7 mps 755 mmHg 77%
    08:00 +9°C° 0 mm 8 mps 755 mmHg 71%
    09:00 +8°C° 0 mm 9 mps 756 mmHg 65%
    10:00 +10°C° 0 mm 9 mps 757 mmHg 59%
    11:00 +11°C° 0.1 mm 9 mps 758 mmHg 54%
    12:00 +12°C° 0.1 mm 9 mps 758 mmHg 50%
    13:00 +12°C° 0.1 mm 10 mps 759 mmHg 45%
    14:00 +12°C° 0.1 mm 9 mps 759 mmHg 45%
    15:00 +12°C° 0.1 mm 8 mps 760 mmHg 46%
    16:00 +12°C° 0.1 mm 7 mps 760 mmHg 46%
    17:00 +10°C° 0 mm 6 mps 761 mmHg 51%
    18:00 +9°C° 0 mm 5 mps 761 mmHg 55%
    19:00 +8°C° 0 mm 4 mps 762 mmHg 59%
    20:00 +8°C° 0 mm 4 mps 763 mmHg 60%
    21:00 +7°C° 0 mm 4 mps 763 mmHg 61%
    22:00 +7°C° 0 mm 4 mps 764 mmHg 62%
    23:00 +7°C° 0 mm 4 mps 764 mmHg 64%

    25 September, Tuesday

    Time Temperature Precipitation Wind Pressure Humidity
    00:00 +7°C° 0 mm 4 mps 765 mmHg 66%
    01:00 +6°C° 0 mm 4 mps 765 mmHg 67%
    02:00 +6°C° 0 mm 4 mps 766 mmHg 69%
    03:00 +6°C° 0 mm 4 mps 766 mmHg 71%
    04:00 +5°C° 0 mm 4 mps 767 mmHg 73%
    05:00 +6°C° 0 mm 4 mps 767 mmHg 73%
    06:00 +6°C° 0 mm 4 mps 768 mmHg 74%
    07:00 +6°C° 0 mm 4 mps 768 mmHg 74%
    08:00 +7°C° 0 mm 4 mps 769 mmHg 65%
    09:00 +10°C° 0 mm 4 mps 769 mmHg 56%
    10:00 +12°C° 0 mm 4 mps 769 mmHg 48%
    11:00 +13°C° 0 mm 4 mps 769 mmHg 45%
    12:00 +13°C° 0 mm 4 mps 769 mmHg 42%
    13:00 +14°C° 0 mm 5 mps 769 mmHg 39%
    14:00 +14°C° 0 mm 5 mps 769 mmHg 40%
    15:00 +14°C° 0 mm 5 mps 768 mmHg 42%
    16:00 +14°C° 0 mm 5 mps 768 mmHg 43%
    17:00 +12°C° 0 mm 4 mps 768 mmHg 48%
    18:00 +11°C° 0 mm 4 mps 768 mmHg 54%
    19:00 +10°C° 0 mm 3 mps 768 mmHg 59%
    20:00 +9°C° 0 mm 3 mps 768 mmHg 61%
    21:00 +8°C° 0 mm 4 mps 768 mmHg 63%
    22:00 +8°C° 0 mm 4 mps 768 mmHg 65%
    23:00 +8°C° 0 mm 4 mps 767 mmHg 67%

    26 September, Wednesday

    Time Temperature Precipitation Wind Pressure Humidity
    00:00 +8°C° 0 mm 4 mps 767 mmHg 68%
    01:00 +8°C° 0 mm 5 mps 767 mmHg 70%
    02:00 +8°C° 0 mm 4 mps 767 mmHg 72%
    03:00 +7°C° 0 mm 4 mps 767 mmHg 74%
    04:00 +7°C° 0 mm 4 mps 767 mmHg 77%
    05:00 +7°C° 0 mm 4 mps 767 mmHg 77%
    06:00 +7°C° 0 mm 4 mps 767 mmHg 78%
    07:00 +7°C° 0 mm 4 mps 767 mmHg 79%
    08:00 +10°C° 0 mm 4 mps 767 mmHg 74%
    09:00 +11°C° 0 mm 4 mps 767 mmHg 69%
    10:00 +13°C° 0 mm 4 mps 767 mmHg 64%
    11:00 +14°C° 0 mm 4 mps 767 mmHg 60%
    12:00 +15°C° 0 mm 4 mps 767 mmHg 56%
    13:00 +17°C° 0 mm 4 mps 766 mmHg 52%
    14:00 +17°C° 0 mm 4 mps 766 mmHg 53%
    15:00 +17°C° 0 mm 4 mps 766 mmHg 54%
    16:00 +17°C° 0 mm 3 mps 765 mmHg 54%
    17:00 +14°C° 0 mm 3 mps 765 mmHg 60%
    18:00 +13°C° 0 mm 3 mps 765 mmHg 65%
    19:00 +13°C° 0 mm 2 mps 765 mmHg 71%
    20:00 +12°C° 0 mm 2 mps 765 mmHg 71%
    21:00 +12°C° 0 mm 2 mps 765 mmHg 71%
    22:00 +10°C° 0 mm 2 mps 765 mmHg 71%
    23:00 +10°C° 0 mm 2 mps 764 mmHg 71%

    27 September, Thursday

    Time Temperature Precipitation Wind Pressure Humidity
    00:00 +10°C° 0 mm 3 mps 764 mmHg 70%
    01:00 +9°C° 0 mm 3 mps 764 mmHg 69%
    02:00 +9°C° 0 mm 3 mps 763 mmHg 68%
    03:00 +9°C° 0 mm 3 mps 763 mmHg 67%
    04:00 +9°C° 0 mm 3 mps 762 mmHg 67%
    05:00 +9°C° 0 mm 3 mps 762 mmHg 65%
    06:00 +9°C° 0 mm 3 mps 762 mmHg 64%
    07:00 +9°C° 0 mm 3 mps 761 mmHg 62%
    08:00 +11°C° 0 mm 4 mps 761 mmHg 56%
    09:00 +13°C° 0 mm 4 mps 761 mmHg 49%
    10:00 +16°C° 0 mm 5 mps 760 mmHg 43%
    11:00 +17°C° 0 mm 5 mps 760 mmHg 40%
    12:00 +19°C° 0 mm 5 mps 759 mmHg 37%
    13:00 +20°C° 0 mm 5 mps 759 mmHg 35%
    14:00 +20°C° 0 mm 5 mps 758 mmHg 36%
    15:00 +20°C° 0 mm 5 mps 758 mmHg 37%
    16:00 +20°C° 0 mm 5 mps 757 mmHg 39%
    17:00 +17°C° 0 mm 5 mps 757 mmHg 43%
    18:00 +17°C° 0 mm 4 mps 757 mmHg 47%
    19:00 +15°C° 0 mm 4 mps 757 mmHg 51%
    20:00 +15°C° 0 mm 4 mps 757 mmHg 54%
    21:00 +14°C° 0 mm 5 mps 758 mmHg 58%
    22:00 +14°C° 0 mm 5 mps 758 mmHg 61%
    23:00 +14°C° 0.1 mm 5 mps 758 mmHg 66%
    Show more